Weather History for Dothan, AL

Change the Weather History Date:

Sunday, November 3, 2013

  Actual Average Record
Temperature  
Mean Temperature 56 °F 62 °F  
Max Temperature 68 °F 75 °F 85 °F (2012)
Min Temperature 44 °F 50 °F 21 °F (1954)
Degree Days  
Heating Degree Days 9 5  
Month to date heating degree days 10 14  
Since 1 July heating degree days 51 73  
Growing Degree Days 5 (Base 50)    
Moisture  
Dew Point 41 °F    
Average Humidity 63    
Maximum Humidity 90    
Minimum Humidity 31    
Precipitation  
Precipitation 0.00 in 0.07 in 0.58 in (1934)
Month to date precipitation 0.66 0.25  
Year to date precipitation 67.49 45.64  
Sea Level Pressure  
Sea Level Pressure 30.20 in    
Wind  
Wind Speed 7 mph (NNE)    
Max Wind Speed 12 mph    
Max Gust Speed 18 mph    
Visibility 10 miles    
Events      
T = Trace of Precipitation, MM = Missing Value Source: NWS Daily Summary

Daily Weather History Graph

Daily Weather History Graph

Search for Another Location

Airport:

Trip Planner

Search our weather history database for the weather conditions in past years. The results will help you decide how hot, cold, wet, or windy it might be!

Date:

Astronomy

Nov. 03, 2013 Rise Set
Actual Time 5:59 AM CST 4:50 PM CST
Civil Twilight 5:34 AM CST 5:16 PM CST
Nautical Twilight 5:05 AM CST 5:44 PM CST
Astronomical Twilight 4:36 AM CST 6:13 PM CST
Moon 6:01 AM CST (11/3) 5:07 PM CST (11/3)
Length of Visible Light 11h 42m
Length of Day
10h 51m
New Moon, 0% of the Moon is Illuminated
Nov 3
New Moon
Nov 9
First Quarter
Nov 17
Full
Nov 25
Last Quarter
Dec 2
New

Hourly Weather History & Observations

Time (CST) Temp. Windchill Dew Point Humidity Pressure Visibility Wind Dir Wind Speed Gust Speed Precip Events Conditions
12:53 AM 51.1 °F - 43.0 °F 74% 30.11 in 10.0 mi NNW 8.1 mph - N/A   Clear
1:53 AM 50.0 °F - 42.1 °F 74% 30.12 in 10.0 mi NNW 5.8 mph - N/A   Clear
1:53 AM 48.9 °F - 42.1 °F 77% 30.12 in 10.0 mi NNW 5.8 mph - N/A   Clear
2:53 AM 46.9 °F - 42.1 °F 83% 30.14 in 10.0 mi North 3.5 mph - N/A   Clear
3:53 AM 46.0 °F 43.9 °F 42.1 °F 86% 30.16 in 10.0 mi NNW 4.6 mph - N/A   Clear
4:53 AM 45.0 °F 42.6 °F 42.1 °F 90% 30.18 in 10.0 mi NNW 4.6 mph - N/A   Clear
5:53 AM 44.1 °F 40.1 °F 41.0 °F 89% 30.19 in 10.0 mi North 6.9 mph - N/A   Clear
6:53 AM 48.0 °F - 42.1 °F 80% 30.20 in 10.0 mi North 10.4 mph - N/A   Clear
7:53 AM 53.1 °F - 43.0 °F 69% 30.22 in 10.0 mi NNE 11.5 mph 16.1 mph N/A   Clear
8:53 AM 57.0 °F - 44.1 °F 62% 30.23 in 10.0 mi NNE 9.2 mph - N/A   Clear
9:53 AM 62.1 °F - 39.9 °F 44% 30.25 in 10.0 mi NE 10.4 mph 17.3 mph N/A   Clear
10:53 AM 64.0 °F - 39.0 °F 40% 30.23 in 10.0 mi NE 9.2 mph - N/A   Clear
11:53 AM 66.9 °F - 37.0 °F 33% 30.20 in 10.0 mi NNE 9.2 mph - N/A   Clear
12:53 PM 66.9 °F - 35.1 °F 31% 30.18 in 10.0 mi NNE 9.2 mph 18.4 mph N/A   Clear
1:53 PM 66.9 °F - 36.0 °F 32% 30.18 in 10.0 mi NE 8.1 mph 16.1 mph N/A   Clear
2:53 PM 66.9 °F - 39.0 °F 36% 30.18 in 10.0 mi ENE 6.9 mph - N/A   Clear
3:53 PM 66.0 °F - 39.9 °F 38% 30.18 in 10.0 mi Variable 4.6 mph - N/A   Clear
4:53 PM 59.0 °F - 42.1 °F 53% 30.20 in 10.0 mi NE 3.5 mph - N/A   Clear
5:53 PM 55.0 °F - 43.0 °F 64% 30.22 in 10.0 mi East 3.5 mph - N/A   Clear
6:53 PM 54.0 °F - 44.1 °F 69% 30.24 in 10.0 mi East 3.5 mph - N/A   Clear
7:53 PM 52.0 °F - 43.0 °F 71% 30.25 in 10.0 mi East 3.5 mph - N/A   Clear
8:53 PM 54.0 °F - 42.1 °F 64% 30.26 in 10.0 mi ENE 3.5 mph - N/A   Clear
9:53 PM 52.0 °F - 42.1 °F 69% 30.27 in 10.0 mi ENE 3.5 mph - N/A   Clear
10:53 PM 48.9 °F - 42.1 °F 77% 30.29 in 10.0 mi NE 4.6 mph - N/A   Clear